28-11-2023, 00:00:05,    318,    1.8,    3.5,   0.00,   0.00, 1004.1,    0.9, -999.0
28-11-2023, 00:00:15,    321,    2.0,    3.5,   0.00,   0.00, 1004.1,    0.9, -999.0
28-11-2023, 00:00:25,    321,    1.9,    3.5,   0.00,   0.00, 1004.1,    0.5, -999.0
28-11-2023, 00:00:35,    320,    1.7,    3.5,   0.00,   0.00, 1004.1,    0.8, -999.0
28-11-2023, 00:00:44,    319,    0.8,    3.5,   0.00,   0.00, 1004.1,    0.5, -999.0
28-11-2023, 00:00:55,    319,    0.7,    3.5,   0.00,   0.00, 1004.1,    0.9, -999.0
28-11-2023, 00:01:05,    332,    2.3,    3.5,   0.00,   0.00, 1004.1,    0.7, -999.0
28-11-2023, 00:01:14,    330,    2.4,    3.5,   0.00,   0.00, 1004.1,    0.9, -999.0
28-11-2023, 00:01:24,    324,    3.0,    3.5,   0.00,   0.00, 1004.1,    0.8, -999.0
28-11-2023, 00:01:35,    325,    2.5,    3.5,   0.00,   0.00, 1004.1,    0.8, -999.0
28-11-2023, 00:01:45,    323,    3.0,    3.5,   0.00,   0.00, 1004.1,    0.9, -999.0
28-11-2023, 00:01:54,    323,    2.8,    3.5,   0.00,   0.00, 1004.1,    0.8, -999.0
28-11-2023, 00:02:04,    309,    2.0,    3.5,   0.00,   0.00, 1004.1,    0.5, -999.0
28-11-2023, 00:02:15,    329,    2.5,    3.4,   0.00,   0.00, 1004.1,    0.6, -999.0
28-11-2023, 00:02:24,    340,    2.8,    3.5,   0.00,   0.00, 1004.0,    0.9, -999.0
28-11-2023, 00:02:34,    337,    2.2,    3.4,   0.00,   0.00, 1004.0,    0.7, -999.0
28-11-2023, 00:02:45,    313,    1.6,    3.4,   0.00,   0.00, 1004.1,    0.8, -999.0
28-11-2023, 00:02:55,    313,    0.9,    3.4,   0.00,   0.00, 1004.0,    0.9, -999.0
28-11-2023, 00:03:04,    312,    0.2,    3.4,   0.00,   0.00, 1004.0,    0.8, -999.0
28-11-2023, 00:03:14,    316,    1.6,    3.4,   0.00,   0.00, 1004.1,    0.7, -999.0
28-11-2023, 00:03:25,    323,    2.8,    3.5,   0.00,   0.00, 1004.1,    0.7, -999.0
28-11-2023, 00:03:34,    328,    3.7,    3.5,   0.00,   0.00, 1004.1,    0.8, -999.0
28-11-2023, 00:03:44,    323,    2.9,    3.4,   0.00,   0.00, 1004.1,    0.6, -999.0
28-11-2023, 00:03:54,    324,    1.3,    3.5,   0.00,   0.00, 1004.0,    0.6, -999.0
28-11-2023, 00:04:04,    308,    1.7,    3.5,   0.00,   0.00, 1004.0,    0.5, -999.0
28-11-2023, 00:04:14,    307,    2.8,    3.5,   0.00,   0.00, 1004.1,    0.6, -999.0
28-11-2023, 00:04:24,    358,    3.2,    3.4,   0.00,   0.00, 1004.1,    1.0, -999.0
28-11-2023, 00:04:34,    332,    3.0,    3.5,   0.00,   0.00, 1004.1,    0.8, -999.0
28-11-2023, 00:04:44,    332,    4.2,    3.4,   0.00,   0.00, 1004.1,    0.8, -999.0
28-11-2023, 00:04:54,    327,    2.6,    3.4,   0.00,   0.00, 1004.1,    0.7, -999.0
28-11-2023, 00:05:04,    344,    1.9,    3.5,   0.00,   0.00, 1004.1,    0.8, -999.0
28-11-2023, 00:05:14,    308,    1.3,    3.5,   0.00,   0.00, 1004.1,    0.8, -999.0
28-11-2023, 00:05:24,    308,    0.6,    3.5,   0.00,   0.00, 1004.1,    0.7, -999.0
28-11-2023, 00:05:34,    308,    0.3,    3.4,   0.00,   0.00, 1004.0,    0.7, -999.0
28-11-2023, 00:05:44,    308,    0.8,    3.5,   0.00,   0.00, 1004.1,    0.8, -999.0
28-11-2023, 00:05:54,    308,    0.3,    3.4,   0.00,   0.00, 1004.1,    1.1, -999.0
28-11-2023, 00:06:04,    308,    0.5,    3.4,   0.00,   0.00, 1004.1,    0.4, -999.0
28-11-2023, 00:06:14,    308,    0.8,    3.5,   0.00,   0.00, 1004.1,    0.7, -999.0
28-11-2023, 00:06:24,    308,    0.0,    3.3,   0.00,   0.00, 1003.9,    0.5, -999.0
28-11-2023, 00:06:34,    308,    0.0,    3.4,   0.00,   0.00, 1003.9,    0.5, -999.0
28-11-2023, 00:06:44,    308,    0.1,    3.3,   0.00,   0.00, 1004.0,    0.5, -999.0
28-11-2023, 00:06:54,    298,    0.7,    3.4,   0.00,   0.00, 1004.1,    0.7, -999.0
28-11-2023, 00:07:04,    296,    1.3,    3.5,   0.00,   0.00, 1004.2,    0.6, -999.0
28-11-2023, 00:07:14,    319,    1.9,    3.5,   0.00,   0.00, 1004.1,    0.8, -999.0
28-11-2023, 00:07:24,    343,    2.7,    3.5,   0.00,   0.00, 1004.1,    0.8, -999.0
28-11-2023, 00:07:34,    334,    2.0,    3.4,   0.00,   0.00, 1004.1,    0.8, -999.0
28-11-2023, 00:07:44,    303,    1.8,    3.4,   0.00,   0.00, 1004.1,    0.8, -999.0
28-11-2023, 00:07:54,    303,    2.0,    3.5,   0.00,   0.00, 1004.1,    0.7, -999.0
28-11-2023, 00:08:04,    309,    2.2,    3.4,   0.00,   0.00, 1004.1,    0.6, -999.0
28-11-2023, 00:08:14,    318,    2.0,    3.5,   0.00,   0.00, 1004.1,    0.7, -999.0
28-11-2023, 00:08:24,    334,    3.2,    3.4,   0.00,   0.00, 1004.1,    0.7, -999.0
28-11-2023, 00:08:34,    302,    1.9,    3.5,   0.00,   0.00, 1004.1,    0.7, -999.0
28-11-2023, 00:08:44,    313,    2.4,    3.5,   0.00,   0.00, 1004.1,    0.2, -999.0
28-11-2023, 00:08:54,    323,    3.8,    3.5,   0.00,   0.00, 1004.1,    0.2, -999.0
28-11-2023, 00:09:04,    325,    3.4,    3.5,   0.00,   0.00, 1004.1,    0.8, -999.0
28-11-2023, 00:09:14,    313,    3.1,    3.5,   0.00,   0.00, 1004.1,    0.7, -999.0
28-11-2023, 00:09:24,    312,    2.6,    3.5,   0.00,   0.00, 1004.1,    0.6, -999.0
28-11-2023, 00:09:34,    312,    2.0,    3.5,   0.00,   0.00, 1004.0,    0.8, -999.0
28-11-2023, 00:09:44,    313,    1.7,    3.4,   0.00,   0.00, 1004.0,    0.5, -999.0
28-11-2023, 00:09:54,    325,    2.4,    3.4,   0.00,   0.00, 1004.1,    0.8, -999.0
28-11-2023, 00:10:04,    342,    3.2,    3.4,   0.00,   0.00, 1004.1,    0.6, -999.0
28-11-2023, 00:10:13,    338,    3.9,    3.4,   0.00,   0.00, 1004.1,    1.2, -999.0
28-11-2023, 00:10:24,    331,    3.8,    3.5,   0.00,   0.00, 1004.0,    0.4, -999.0
28-11-2023, 00:10:34,    307,    3.0,    3.4,   0.00,   0.00, 1004.0,    0.5, -999.0
28-11-2023, 00:10:43,    333,    1.4,    3.4,   0.00,   0.00, 1004.0,    0.7, -999.0
28-11-2023, 00:10:53,    321,    0.6,    3.4,   0.00,   0.00, 1004.0,    0.6, -999.0
28-11-2023, 00:11:04,    326,    3.0,    3.4,   0.00,   0.00, 1004.1,    0.6, -999.0
28-11-2023, 00:11:14,    322,    2.9,    3.5,   0.00,   0.00, 1004.1,    0.7, -999.0
28-11-2023, 00:11:23,    312,    2.7,    3.5,   0.00,   0.00, 1004.1,    1.3, -999.0
28-11-2023, 00:11:34,    323,    2.9,    3.4,   0.00,   0.00, 1004.1,    0.5, -999.0
28-11-2023, 00:11:44,    324,    2.4,    3.5,   0.00,   0.00, 1004.1,    0.1, -999.0
28-11-2023, 00:11:53,    310,    2.9,    3.5,   0.00,   0.00, 1004.0,    0.7, -999.0
28-11-2023, 00:12:03,    320,    3.5,    3.4,   0.00,   0.00, 1004.1,    0.6, -999.0
28-11-2023, 00:12:14,    330,    4.6,    3.4,   0.00,   0.00, 1004.1,    0.9, -999.0
28-11-2023, 00:12:23,    344,    3.5,    3.4,   0.00,   0.00, 1004.1,    0.6, -999.0
28-11-2023, 00:12:33,    320,    3.1,    3.4,   0.00,   0.00, 1004.1,    1.0, -999.0
28-11-2023, 00:12:43,    330,    3.2,    3.4,   0.00,   0.00, 1004.1,    0.6, -999.0
28-11-2023, 00:12:54,    301,    2.4,    3.4,   0.00,   0.00, 1004.1,    0.5, -999.0
28-11-2023, 00:13:03,    301,    1.6,    3.4,   0.00,   0.00, 1004.1,    0.7, -999.0
28-11-2023, 00:13:13,    301,    1.0,    3.4,   0.00,   0.00, 1004.1,    0.8, -999.0
28-11-2023, 00:13:23,    331,    1.6,    3.5,   0.00,   0.00, 1004.1,    1.0, -999.0
28-11-2023, 00:13:33,    325,    3.2,    3.4,   0.00,   0.00, 1004.1,    0.8, -999.0
28-11-2023, 00:13:43,    349,    2.0,    3.4,   0.00,   0.00, 1004.1,    0.7, -999.0
28-11-2023, 00:13:53,    338,    0.5,    3.4,   0.00,   0.00, 1004.1,    0.9, -999.0
28-11-2023, 00:14:03,    340,    2.3,    3.3,   0.00,   0.00, 1004.1,    0.7, -999.0
28-11-2023, 00:14:13,    338,    1.5,    3.3,   0.00,   0.00, 1004.1,    0.7, -999.0
28-11-2023, 00:14:23,    336,    0.7,    3.3,   0.00,   0.00, 1004.1,    0.3, -999.0
28-11-2023, 00:14:33,    336,    1.0,    3.4,   0.00,   0.00, 1004.1,    0.7, -999.0
28-11-2023, 00:14:43,    335,    0.9,    3.5,   0.00,   0.00, 1004.1,    0.9, -999.0
28-11-2023, 00:14:53,    309,    1.3,    3.4,   0.00,   0.00, 1004.1,    0.6, -999.0
28-11-2023, 00:15:03,    312,    1.5,    3.4,   0.00,   0.00, 1004.1,    1.0, -999.0
28-11-2023, 00:15:13,    324,    2.4,    3.4,   0.00,   0.00, 1004.1,    0.7, -999.0
28-11-2023, 00:15:23,    326,    1.8,    3.4,   0.00,   0.00, 1004.1,    0.6, -999.0
28-11-2023, 00:15:33,    326,    0.5,    3.4,   0.00,   0.00, 1004.1,    0.6, -999.0
28-11-2023, 00:15:43,    326,    1.1,    3.4,   0.00,   0.00, 1004.1,    1.1, -999.0
28-11-2023, 00:15:53,    325,    0.3,    3.4,   0.00,   0.00, 1004.1,    0.6, -999.0
28-11-2023, 00:16:03,    326,    0.0,    3.3,   0.00,   0.00, 1004.0,    0.6, -999.0
28-11-2023, 00:16:13,    326,    0.2,    3.4,   0.00,   0.00, 1004.1,    0.7, -999.0
28-11-2023, 00:16:23,    338,    1.1,    3.4,   0.00,   0.00, 1004.1,    0.6, -999.0
28-11-2023, 00:16:33,    324,    0.5,    3.4,   0.00,   0.00, 1004.1,    0.6, -999.0
28-11-2023, 00:16:43,    324,    1.1,    3.4,   0.00,   0.00, 1004.1,    0.6, -999.0
28-11-2023, 00:16:53,    323,    0.2,    3.4,   0.00,   0.00, 1004.1,    0.7, -999.0
28-11-2023, 00:17:03,    323,    0.0,    3.4,   0.00,   0.00, 1004.0,    0.8, -999.0
28-11-2023, 00:17:13,    323,    0.1,    3.3,   0.00,   0.00, 1004.0,    0.9, -999.0
28-11-2023, 00:17:23,    315,    0.7,    3.5,   0.00,   0.00, 1004.1,    0.7, -999.0
28-11-2023, 00:17:33,    323,    0.8,    3.3,   0.00,   0.00, 1004.1,    0.8, -999.0
28-11-2023, 00:17:43,    311,    1.3,    3.4,   0.00,   0.00, 1004.1,    0.8, -999.0
28-11-2023, 00:17:53,    323,    2.6,    3.3,   0.00,   0.00, 1004.2,    0.4, -999.0
28-11-2023, 00:18:03,    323,    0.5,    3.4,   0.00,   0.00, 1004.1,    0.7, -999.0
28-11-2023, 00:18:13,    337,    0.9,    3.4,   0.00,   0.00, 1004.2,    0.9, -999.0
28-11-2023, 00:18:23,    327,    2.1,    3.4,   0.00,   0.00, 1004.2,    0.6, -999.0
28-11-2023, 00:18:33,    319,    1.3,    3.4,   0.00,   0.00, 1004.2,    0.8, -999.0
28-11-2023, 00:18:43,    318,    0.3,    3.3,   0.00,   0.00, 1004.1,    0.5, -999.0
28-11-2023, 00:18:53,    318,    0.8,    3.4,   0.00,   0.00, 1004.1,    0.6, -999.0
28-11-2023, 00:19:03,    302,    2.7,    3.4,   0.00,   0.00, 1004.1,    0.9, -999.0
28-11-2023, 00:19:13,    306,    3.1,    3.4,   0.00,   0.00, 1004.2,    1.0, -999.0
28-11-2023, 00:19:23,    299,    1.0,    3.4,   0.00,   0.00, 1004.1,    0.7, -999.0
28-11-2023, 00:19:33,    330,    2.0,    3.4,   0.00,   0.00, 1004.1,    0.5, -999.0
28-11-2023, 00:19:43,    341,    2.0,    3.4,   0.00,   0.00, 1004.1,    0.7, -999.0
28-11-2023, 00:19:53,    327,    1.2,    3.4,   0.00,   0.00, 1004.2,    0.8, -999.0
28-11-2023, 00:20:03,    315,    0.8,    3.4,   0.00,   0.00, 1004.1,    0.6, -999.0
28-11-2023, 00:20:13,    317,    2.0,    3.4,   0.00,   0.00, 1004.2,    0.5, -999.0
28-11-2023, 00:20:22,    328,    2.1,    3.4,   0.00,   0.00, 1004.2,    0.5, -999.0
28-11-2023, 00:20:33,    326,    1.5,    3.4,   0.00,   0.00, 1004.2,    1.0, -999.0
28-11-2023, 00:20:43,    325,    0.6,    3.4,   0.00,   0.00, 1004.1,    0.9, -999.0
28-11-2023, 00:20:52,    325,    0.7,    3.4,   0.00,   0.00, 1004.1,    0.8, -999.0
28-11-2023, 00:21:02,    324,    1.0,    3.4,   0.00,   0.00, 1004.2,    0.6, -999.0
28-11-2023, 00:21:13,    324,    0.7,    3.4,   0.00,   0.00, 1004.1,    0.6, -999.0
28-11-2023, 00:21:23,    309,    2.4,    3.4,   0.00,   0.00, 1004.2,    0.4, -999.0
28-11-2023, 00:21:32,    358,    3.6,    3.4,   0.00,   0.00, 1004.2,    0.9, -999.0
28-11-2023, 00:21:43,    349,    4.2,    3.4,   0.00,   0.00, 1004.2,    0.7, -999.0
28-11-2023, 00:21:53,    332,    5.0,    3.4,   0.00,   0.00, 1004.2,    0.9, -999.0
28-11-2023, 00:22:02,    320,    5.7,    3.4,   0.00,   0.00, 1004.2,    0.7, -999.0
28-11-2023, 00:22:12,    312,    4.0,    3.3,   0.00,   0.00, 1004.2,    0.9, -999.0
28-11-2023, 00:22:23,    312,    1.5,    3.3,   0.00,   0.00, 1004.1,    0.8, -999.0
28-11-2023, 00:22:32,    312,    2.4,    3.4,   0.00,   0.00, 1004.2,    0.9, -999.0
28-11-2023, 00:22:42,    313,    2.6,    3.4,   0.00,   0.00, 1004.1,    0.7, -999.0
28-11-2023, 00:22:52,    312,    0.8,    3.5,   0.00,   0.00, 1004.1,    0.7, -999.0
28-11-2023, 00:23:03,    329,    1.6,    3.4,   0.00,   0.00, 1004.2,    0.6, -999.0
28-11-2023, 00:23:12,    325,    2.8,    3.4,   0.00,   0.00, 1004.2,    0.9, -999.0
28-11-2023, 00:23:22,    308,    3.9,    3.4,   0.00,   0.00, 1004.2,    0.7, -999.0
28-11-2023, 00:23:32,    302,    1.8,    3.4,   0.00,   0.00, 1004.2,    0.6, -999.0
28-11-2023, 00:23:42,    301,    1.0,    3.4,   0.00,   0.00, 1004.1,    0.7, -999.0
28-11-2023, 00:23:52,    320,    1.3,    3.4,   0.00,   0.00, 1004.2,    0.6, -999.0
28-11-2023, 00:24:02,    330,    1.6,    3.4,   0.00,   0.00, 1004.2,    0.9, -999.0
28-11-2023, 00:24:12,    327,    1.9,    3.4,   0.00,   0.00, 1004.2,    0.7, -999.0
28-11-2023, 00:24:22,    310,    1.6,    3.4,   0.00,   0.00, 1004.2,    0.7, -999.0
28-11-2023, 00:24:32,    315,    2.4,    3.4,   0.00,   0.00, 1004.2,    0.6, -999.0
28-11-2023, 00:24:42,    315,    1.6,    3.4,   0.00,   0.00, 1004.3,    0.7, -999.0
28-11-2023, 00:24:52,    315,    1.5,    3.4,   0.00,   0.00, 1004.2,    0.6, -999.0
28-11-2023, 00:25:02,    315,    1.0,    3.4,   0.00,   0.00, 1004.2,    0.5, -999.0
28-11-2023, 00:25:12,    315,    0.0,    3.3,   0.00,   0.00, 1004.1,    0.6, -999.0
28-11-2023, 00:25:22,    315,    0.2,    3.3,   0.00,   0.00, 1004.2,    0.8, -999.0
28-11-2023, 00:25:32,    281,    1.8,    3.4,   0.00,   0.00, 1004.2,    0.6, -999.0
28-11-2023, 00:25:42,    304,    2.1,    3.3,   0.00,   0.00, 1004.2,    0.7, -999.0
28-11-2023, 00:25:52,    317,    2.9,    3.4,   0.00,   0.00, 1004.2,    0.8, -999.0
28-11-2023, 00:26:02,    317,    2.1,    3.4,   0.00,   0.00, 1004.2,    0.6, -999.0
28-11-2023, 00:26:12,    317,    1.2,    3.4,   0.00,   0.00, 1004.2,    0.6, -999.0
28-11-2023, 00:26:22,    318,    1.0,    3.4,   0.00,   0.00, 1004.3,    0.6, -999.0
28-11-2023, 00:26:32,    317,    0.3,    3.4,   0.00,   0.00, 1004.2,    0.6, -999.0
28-11-2023, 00:26:42,    321,    2.3,    3.4,   0.00,   0.00, 1004.2,    0.7, -999.0
28-11-2023, 00:26:52,    322,    2.7,    3.4,   0.00,   0.00, 1004.2,    0.8, -999.0
28-11-2023, 00:27:02,    287,    2.6,    3.4,   0.00,   0.00, 1004.3,    0.8, -999.0
28-11-2023, 00:27:12,    281,    0.8,    3.3,   0.00,   0.00, 1004.2,    0.9, -999.0
28-11-2023, 00:27:22,    282,    0.0,    3.3,   0.00,   0.00, 1004.2,    0.7, -999.0
28-11-2023, 00:27:32,    282,    0.2,    3.4,   0.00,   0.00, 1004.2,    0.6, -999.0
28-11-2023, 00:27:42,    282,    0.2,    3.4,   0.00,   0.00, 1004.2,    0.6, -999.0
28-11-2023, 00:27:52,    282,    0.4,    3.3,   0.00,   0.00, 1004.2,    0.8, -999.0
28-11-2023, 00:28:02,    282,    0.9,    3.4,   0.00,   0.00, 1004.2,    0.6, -999.0
28-11-2023, 00:28:12,    283,    0.5,    3.4,   0.00,   0.00, 1004.3,    0.7, -999.0
28-11-2023, 00:28:22,    283,    0.8,    3.4,   0.00,   0.00, 1004.2,    0.5, -999.0
28-11-2023, 00:28:32,    283,    0.0,    3.3,   0.00,   0.00, 1004.2,    0.5, -999.0
28-11-2023, 00:28:42,    283,    0.0,    3.3,   0.00,   0.00, 1004.2,    0.6, -999.0
28-11-2023, 00:28:52,    293,    0.6,    3.4,   0.00,   0.00, 1004.2,    0.6, -999.0
28-11-2023, 00:29:02,    293,    0.2,    3.4,   0.00,   0.00, 1004.2,    0.8, -999.0
28-11-2023, 00:29:12,    292,    0.4,    3.4,   0.00,   0.00, 1004.2,    0.9, -999.0
28-11-2023, 00:29:22,    292,    0.3,    3.4,   0.00,   0.00, 1004.2,    0.8, -999.0
28-11-2023, 00:29:32,    292,    0.7,    3.4,   0.00,   0.00, 1004.3,    1.0, -999.0
28-11-2023, 00:29:42,    318,    1.5,    3.5,   0.00,   0.00, 1004.3,    0.8, -999.0
28-11-2023, 00:29:51,    320,    1.9,    3.4,   0.00,   0.00, 1004.3,    1.0, -999.0
28-11-2023, 00:30:02,    345,    2.6,    3.4,   0.00,   0.00, 1004.2,    0.8, -999.0
28-11-2023, 00:30:12,    312,    3.1,    3.4,   0.00,   0.00, 1004.3,    0.7, -999.0
28-11-2023, 00:30:22,    312,    3.1,    3.3,   0.00,   0.00, 1004.3,    0.7, -999.0
28-11-2023, 00:30:31,    312,    1.6,    3.4,   0.00,   0.00, 1004.3,    0.6, -999.0
28-11-2023, 00:30:42,    337,    2.4,    3.3,   0.00,   0.00, 1004.3,    0.7, -999.0
28-11-2023, 00:30:52,    319,    1.9,    3.4,   0.00,   0.00, 1004.3,    0.9, -999.0
28-11-2023, 00:31:01,    335,    2.8,    3.4,   0.00,   0.00, 1004.2,    0.6, -999.0
28-11-2023, 00:31:11,    318,    3.1,    3.4,   0.00,   0.00, 1004.3,    0.8, -999.0
28-11-2023, 00:31:22,    314,    2.3,    3.4,   0.00,   0.00, 1004.3,    0.3, -999.0
28-11-2023, 00:31:32,    323,    2.1,    3.4,   0.00,   0.00, 1004.3,    0.8, -999.0
28-11-2023, 00:31:41,    329,    4.4,    3.4,   0.00,   0.00, 1004.3,    1.1, -999.0
28-11-2023, 00:31:52,    315,    4.7,    3.3,   0.00,   0.00, 1004.3,    1.1, -999.0
28-11-2023, 00:32:02,    305,    3.9,    3.4,   0.00,   0.00, 1004.3,    1.0, -999.0
28-11-2023, 00:32:11,    310,    3.4,    3.4,   0.00,   0.00, 1004.3,    0.5, -999.0
28-11-2023, 00:32:21,    318,    3.9,    3.4,   0.00,   0.00, 1004.3,    1.0, -999.0
28-11-2023, 00:32:32,    310,    3.4,    3.3,   0.00,   0.00, 1004.3,    0.9, -999.0
28-11-2023, 00:32:42,    340,    2.5,    3.4,   0.00,   0.00, 1004.3,    1.1, -999.0
28-11-2023, 00:32:51,    315,    1.1,    3.4,   0.00,   0.00, 1004.3,    0.7, -999.0
28-11-2023, 00:33:01,    315,    0.8,    3.4,   0.00,   0.00, 1004.2,    0.3, -999.0
28-11-2023, 00:33:12,    313,    0.6,    3.3,   0.00,   0.00, 1004.2,    0.8, -999.0
28-11-2023, 00:33:21,    320,    2.4,    3.4,   0.00,   0.00, 1004.3,    0.4, -999.0
28-11-2023, 00:33:31,    321,    2.6,    3.5,   0.00,   0.00, 1004.3,    0.6, -999.0
28-11-2023, 00:33:41,    346,    4.4,    3.4,   0.00,   0.00, 1004.3,    0.8, -999.0
28-11-2023, 00:33:51,    320,    4.0,    3.3,   0.00,   0.00, 1004.3,    0.6, -999.0
28-11-2023, 00:34:01,    341,    3.0,    3.4,   0.00,   0.00, 1004.3,    0.7, -999.0
28-11-2023, 00:34:11,    347,    2.9,    3.3,   0.00,   0.00, 1004.3,    1.0, -999.0
28-11-2023, 00:34:21,    332,    3.9,    3.3,   0.00,   0.00, 1004.3,    0.7, -999.0
28-11-2023, 00:34:31,    350,    3.8,    3.4,   0.00,   0.00, 1004.3,    0.6, -999.0
28-11-2023, 00:34:41,    318,    2.8,    3.4,   0.00,   0.00, 1004.3,    0.7, -999.0
28-11-2023, 00:34:51,    316,    0.7,    3.4,   0.00,   0.00, 1004.2,    0.6, -999.0
28-11-2023, 00:35:01,    317,    2.1,    3.4,   0.00,   0.00, 1004.3,    0.8, -999.0
28-11-2023, 00:35:11,    306,    2.4,    3.4,   0.00,   0.00, 1004.3,    0.7, -999.0
28-11-2023, 00:35:21,    318,    3.5,    3.4,   0.00,   0.00, 1004.3,    0.7, -999.0
28-11-2023, 00:35:31,    342,    2.6,    3.4,   0.00,   0.00, 1004.3,    0.7, -999.0
28-11-2023, 00:35:41,    333,    2.1,    3.4,   0.00,   0.00, 1004.3,    0.5, -999.0
28-11-2023, 00:35:51,    284,    1.2,    3.4,   0.00,   0.00, 1004.3,    0.7, -999.0
28-11-2023, 00:36:01,    334,    1.7,    3.3,   0.00,   0.00, 1004.3,    0.7, -999.0
28-11-2023, 00:36:11,    329,    0.6,    3.4,   0.00,   0.00, 1004.3,    0.4, -999.0
28-11-2023, 00:36:21,    318,    1.3,    3.4,   0.00,   0.00, 1004.3,    0.9, -999.0
28-11-2023, 00:36:31,    353,    2.1,    3.4,   0.00,   0.00, 1004.2,    0.4, -999.0
28-11-2023, 00:36:41,    339,    5.2,    3.4,   0.00,   0.00, 1004.3,    0.8, -999.0
28-11-2023, 00:36:51,    330,    4.9,    3.4,   0.00,   0.00, 1004.3,    0.6, -999.0
28-11-2023, 00:37:01,    326,    2.3,    3.4,   0.00,   0.00, 1004.3,    0.5, -999.0
28-11-2023, 00:37:11,    330,    3.3,    3.4,   0.00,   0.00, 1004.3,    0.5, -999.0
28-11-2023, 00:37:21,    325,    3.8,    3.3,   0.00,   0.00, 1004.3,    0.8, -999.0
28-11-2023, 00:37:31,    327,    4.3,    3.3,   0.00,   0.00, 1004.3,    0.5, -999.0
28-11-2023, 00:37:41,    327,    5.2,    3.4,   0.00,   0.00, 1004.3,    0.7, -999.0
28-11-2023, 00:37:51,    300,    3.3,    3.3,   0.00,   0.00, 1004.3,    0.6, -999.0
28-11-2023, 00:38:01,    314,    2.1,    3.4,   0.00,   0.00, 1004.3,    0.5, -999.0
28-11-2023, 00:38:11,    324,    3.5,    3.4,   0.00,   0.00, 1004.3,    0.7, -999.0
28-11-2023, 00:38:21,    311,    2.8,    3.3,   0.00,   0.00, 1004.3,    0.9, -999.0
28-11-2023, 00:38:31,    327,    2.2,    3.4,   0.00,   0.00, 1004.3,    0.5, -999.0
28-11-2023, 00:38:41,    313,    2.9,    3.4,   0.00,   0.00, 1004.3,    0.9, -999.0
28-11-2023, 00:38:51,    313,    1.5,    3.4,   0.00,   0.00, 1004.3,    0.8, -999.0
28-11-2023, 00:39:01,    305,    0.0,    3.3,   0.00,   0.00, 1004.2,    0.8, -999.0
28-11-2023, 00:39:11,    305,    0.4,    3.3,   0.00,   0.00, 1004.2,    0.7, -999.0
28-11-2023, 00:39:21,    306,    1.7,    3.4,   0.00,   0.00, 1004.3,    0.6, -999.0
28-11-2023, 00:39:31,    315,    2.5,    3.4,   0.00,   0.00, 1004.3,    0.6, -999.0
28-11-2023, 00:39:41,    319,    2.9,    3.3,   0.00,   0.00, 1004.4,    0.7, -999.0
28-11-2023, 00:39:51,    312,    4.5,    3.3,   0.00,   0.00, 1004.4,    0.8, -999.0
28-11-2023, 00:40:00,    321,    2.8,    3.4,   0.00,   0.00, 1004.3,    1.0, -999.0
28-11-2023, 00:40:11,    320,    0.9,    3.4,   0.00,   0.00, 1004.3,    1.0, -999.0
28-11-2023, 00:40:21,    320,    0.0,    3.3,   0.00,   0.00, 1004.3,    0.7, -999.0
28-11-2023, 00:40:30,    320,    0.0,    3.3,   0.00,   0.00, 1004.3,    0.7, -999.0
28-11-2023, 00:40:41,    320,    0.5,    3.3,   0.00,   0.00, 1004.3,    0.8, -999.0
28-11-2023, 00:40:51,    320,    1.2,    3.3,   0.00,   0.00, 1004.3,    1.0, -999.0
28-11-2023, 00:41:01,    320,    1.2,    3.3,   0.00,   0.00, 1004.3,    1.1, -999.0
28-11-2023, 00:41:10,    325,    1.7,    3.4,   0.00,   0.00, 1004.4,    0.4, -999.0
28-11-2023, 00:41:21,    312,    0.0,    3.4,   0.00,   0.00, 1004.3,    0.6, -999.0
28-11-2023, 00:41:31,    299,    1.5,    3.4,   0.00,   0.00, 1004.4,    0.2, -999.0
28-11-2023, 00:41:40,    308,    0.0,    3.4,   0.00,   0.00, 1004.3,    0.8, -999.0
28-11-2023, 00:41:50,    312,    1.0,    3.4,   0.00,   0.00, 1004.3,    1.2, -999.0
28-11-2023, 00:42:01,    316,    2.9,    3.5,   0.00,   0.00, 1004.4,    0.6, -999.0
28-11-2023, 00:42:11,    316,    1.8,    3.4,   0.00,   0.00, 1004.4,    1.1, -999.0
28-11-2023, 00:42:20,    316,    1.4,    3.4,   0.00,   0.00, 1004.4,    0.8, -999.0
28-11-2023, 00:42:30,    311,    1.5,    3.4,   0.00,   0.00, 1004.4,    0.9, -999.0
28-11-2023, 00:42:41,    310,    1.4,    3.4,   0.00,   0.00, 1004.3,    0.7, -999.0
28-11-2023, 00:42:50,    337,    1.6,    3.4,   0.00,   0.00, 1004.4,    1.0, -999.0
28-11-2023, 00:43:00,    327,    2.1,    3.3,   0.00,   0.00, 1004.4,    0.8, -999.0
28-11-2023, 00:43:11,    327,    1.8,    3.4,   0.00,   0.00, 1004.4,    0.8, -999.0
28-11-2023, 00:43:20,    324,    1.4,    3.4,   0.00,   0.00, 1004.4,    0.9, -999.0
28-11-2023, 00:43:30,    324,    1.3,    3.4,   0.00,   0.00, 1004.4,    0.6, -999.0
28-11-2023, 00:43:40,    323,    0.4,    3.3,   0.00,   0.00, 1004.4,    1.0, -999.0
28-11-2023, 00:43:51,    320,    0.0,    3.3,   0.00,   0.00, 1004.3,    0.5, -999.0
28-11-2023, 00:44:00,    320,    0.0,    3.4,   0.00,   0.00, 1004.3,    0.5, -999.0
28-11-2023, 00:44:10,    320,    0.0,    3.4,   0.00,   0.00, 1004.3,    0.2, -999.0
28-11-2023, 00:44:20,    321,    0.0,    3.3,   0.00,   0.00, 1004.3,    0.7, -999.0
28-11-2023, 00:44:30,    321,    0.0,    3.3,   0.00,   0.00, 1004.3,    0.7, -999.0
28-11-2023, 00:44:40,    321,    0.0,    3.3,   0.00,   0.00, 1004.3,    0.7, -999.0
28-11-2023, 00:44:50,    320,    0.5,    3.4,   0.00,   0.00, 1004.4,    0.6, -999.0
28-11-2023, 00:45:00,    328,    1.2,    3.4,   0.00,   0.00, 1004.4,    0.6, -999.0
28-11-2023, 00:45:10,    329,    1.8,    3.4,   0.00,   0.00, 1004.4,    0.7, -999.0
28-11-2023, 00:45:20,    344,    5.4,    3.4,   0.00,   0.00, 1004.5,    0.6, -999.0
28-11-2023, 00:45:30,    330,    4.0,    3.4,   0.00,   0.00, 1004.5,    0.6, -999.0
28-11-2023, 00:45:40,    326,    2.3,    3.4,   0.00,   0.00, 1004.5,    0.8, -999.0
28-11-2023, 00:45:50,    320,    2.0,    3.4,   0.00,   0.00, 1004.4,    0.9, -999.0
28-11-2023, 00:46:00,    317,    1.6,    3.4,   0.00,   0.00, 1004.4,    0.5, -999.0
28-11-2023, 00:46:10,    304,    1.0,    3.4,   0.00,   0.00, 1004.4,    0.7, -999.0
28-11-2023, 00:46:20,    305,    2.4,    3.5,   0.00,   0.00, 1004.4,    0.6, -999.0
28-11-2023, 00:46:30,    305,    1.6,    3.6,   0.00,   0.00, 1004.4,    0.6, -999.0
28-11-2023, 00:46:40,    305,    0.1,    3.4,   0.00,   0.00, 1004.3,    0.6, -999.0
28-11-2023, 00:46:50,    304,    0.0,    3.4,   0.00,   0.00, 1004.3,    0.6, -999.0